This is the latest recevied weather packets stored in our database for station/object JQ1YUX-13. If no packets are shown the sender has not sent any weather packets the latest 10 day(s).
| Time | Temp. | Humidity | Pressure | Rain* | Wind** | Luminosity | Snow |
|---|---|---|---|---|---|---|---|
| 1777843651 | 21.67° C | 90% | 995 hPa | 0.25 mm | - | - | - |
| 1777842752 | 21.11° C | 90% | 995.5 hPa | 1.52 mm | - | - | - |
| 1777841852 | 21.11° C | 90% | 995.4 hPa | 2.79 mm | - | - | - |
| 1777840952 | 21.11° C | 90% | 995.7 hPa | 3.3 mm | - | - | - |
| 1777840051 | 21.11° C | 90% | 995.7 hPa | 3.3 mm | - | - | - |
| 1777839152 | 21.11° C | 90% | 996.1 hPa | 1.78 mm | - | - | - |
| 1777838253 | 21.67° C | 90% | 996.3 hPa | 0.51 mm | - | - | - |
| 1777837351 | 21.67° C | 90% | 996.4 hPa | 0 mm | - | - | - |
| 1777836452 | 21.11° C | 90% | 996.5 hPa | 0.25 mm | - | - | - |
| 1777835551 | 21.11° C | 90% | 996.7 hPa | 0.51 mm | - | - | - |
| 1777834652 | 21.11° C | 90% | 997.8 hPa | 0.76 mm | - | - | - |
| 1777833752 | 21.11° C | 90% | 998.3 hPa | 1.02 mm | - | - | - |
| 1777832852 | 20.56° C | 90% | 998.6 hPa | 0.76 mm | - | - | - |
| 1777831951 | 20° C | 90% | 998.9 hPa | 0.51 mm | - | - | - |
| 1777831051 | 19.44° C | 90% | 999.6 hPa | 0.25 mm | - | - | - |
| 1777830152 | 19.44° C | 90% | 999.9 hPa | 0.25 mm | - | - | - |
| 1777829253 | 19.44° C | 90% | 1000.6 hPa | 0.25 mm | - | - | - |
| 1777828351 | 19.44° C | 90% | 1000.8 hPa | 0.25 mm | - | - | - |
| 1777827452 | 19.44° C | 90% | 1000.9 hPa | 0.51 mm | - | - | - |
| 1777826553 | 19.44° C | 89% | 1001.3 hPa | 0.25 mm | - | - | - |
| 1777825652 | 19.44° C | 89% | 1001.6 hPa | 0.25 mm | - | - | - |
| 1777824753 | 19.44° C | 89% | 1001.8 hPa | 0.25 mm | - | - | - |
| 1777823851 | 20° C | 88% | 1002.4 hPa | 0 mm | - | - | - |
| 1777822952 | 20° C | 88% | 1003 hPa | 0 mm | - | - | - |
| 1777822051 | 20° C | 89% | 1003.1 hPa | 0 mm | - | - | - |
* Rain latest hour (hover to see other rain measurements)
** Current wind speed in m/s (hover to see current wind gust speed)